BREEZE-M R/B, 37870

Orbit data source: Space-Track

BREEZE-M R/B, 37870 is space debris in MEO originally from a launch on Fri, 04 Nov 2011 UTC launched from the Tyuratam Missile And Space Complex (TTMTR). Debris objects in space refer to the collection of defunct objects orbiting the Earth. Examples of debris include non-operational satellites, rocket bodies, and fragments generated from explosions, collisions, or faulty payload assembly.

Loading next visibility...
Identifier
37870, 2011-064D
Orbit
MEO
Country
Flag of CISCIS
Related business
Manufacturer
Khrunichev
Mission
Spacecraft
Bus & Motor
BRIZ, Unknown motor
Mass
~1,600 kg wet, 1,600 kg dry
Launch date (UTC)
2011-11-04 (14 years ago)
Launch vehicle
Unknown
Launch site
Tyuratam Missile And Space Complex (TTMTR)
Object type
Payload
Rocket body
Debris
Shape & HBR
Cyl, 2.0 m
Radar Cross Section
15.135 m², Large (>1 m²)

Expand to show TLE details & history
Last TLE update: 5 days ago

TLE from 5 days ago
0 BREEZE-M R/B
1 37870U 11064D   25346.23933765 -.00000066  00000-0  00000-0 0  9998
2 37870  65.6030  55.3371 0261705 295.1378  55.5279  2.25566953116146
Epoch: 2025-12-12T05:44Z
TLE epoch observation values (Epoch: 2025-12-12T05:44:38.772Z)
Latitude
-6.26098°
Longitude
-114.84297°
Altitude
17,831.249 km
Speed
4.087 km/s
True Right ascension
03h 30m 00s
True Declination
-6° 15' 00"
Sunlit
Object was in daylight at epoch
Visualization orbit readout
Latitude
Unknown
Longitude
Unknown
Altitude
Unknown
Speed
Unknown
Apparent Right ascension
Unknown
Apparent Declination
Unknown
Sunlit
N/A
Visualization observer readout
Local Sidereal Time
20:19:57
Azimuth
Unknown
Elevation
Unknown
Doppler factor
Unknown
Orbital elements
Apogee altitude
18,823.586 km
Perigee altitude
17,538.143 km
Semi-major axis
24,559.002 km
Eccentricity
0.02617
Inclination
65.603°
RAAN
55.3371°
Arg. of periapsis
295.1378°
True anomaly
58.04601°
Mean anomaly
55.5279°
Eccentric anomaly
56.78234°
Mean motion
0.56393 °/min
Orbital period
638.37 mins
BSTAR
0
Loading maneuver chart data...
Computing Atmospheric mass density...
Loading historical data...
Loading historical data...
Loading historical data...
Loading historical data...
Loading historical data...
Loading historical data...
Loading historical data...

Documentation

Showing up to 5 results
|